Location: ??????????
(54.8537°N, 38.8755°E)
Time: 22:23:31
(UTC+00:00)

Transit 2A Rocket - Pass Details

Date: 22 September 2024
Orbit: 582 x 908 km, 66.7° (Epoch: 09 October)

Event Time Altitude Azimuth Distance (km) Brightness Sun altitude
Exits shadow 22:51:22 18° 306° (NW) 2,096 7.3 -32.0°
Maximum altitude 22:54:40 28° 350° (N) 1,641 7.0 -31.8°
Drops below altitude 10° 22:59:42 10° 48° (NE) 2,532 8.5 -31.4°
Sets 23:02:31 0° 60° (ENE) 3,429 9.2 -31.2°
